Regional Weather Roundup
Issued by NWS

Home | Current Version | Previous Version | Graphics & Text | Print | Product List | Glossary On
Versions: 1 2 3 4 5 6 7 8 9 10 11 12 13 14 15 16 17 18 19 20 21 22 23 24 25 26 27 28 29 30 31 32 33 34 35 36 37 38 39 40 41 42 43 44 45 46 47 48 49 50
000
ASUS45 KTFX 280110
RWRMT
MONTANA REGIONAL WEATHER ROUNDUP
NATIONAL WEATHER SERVICE GREAT FALLS MT
700 PM MDT THU AUG 27 2015

NOTE: "FAIR" INDICATES FEW OR NO CLOUDS BELOW 12000 FEET WITH NO
SIGNIFICANT WEATHER AND/OR OBSTRUCTIONS TO VISIBILITY.

MTZ001>007-043-280200-
WEST OF THE DIVIDE

CITY           SKY/WX    TMP DP  RH WIND       PRES   REMARKS
KALISPELL      CLOUDY    85  37  18 W12       29.95F SMOKE
MISSOULA       CLOUDY    84  37  18 NW14      30.00S HAZE
BUTTE          SUNNY     77  35  21 SE7       30.15F
MULLAN PASS    SUNNY     69  36  29 VRB3      30.22S
DEER LODGE       N/A     75  45  33 CALM      30.12S
EUREKA           N/A     86  37  17 S12       29.96S
HAMILTON         N/A     75  52  43 S3        30.04R
LIBBY            N/A     84  39  20 SW3       29.97F
PLAINS           N/A     88  42  19 SW3       29.98S
$$

MTZ008-052>055-280200-
SOUTHWEST MONTANA

CITY           SKY/WX    TMP DP  RH WIND       PRES   REMARKS
BOZEMAN        TSTM      70  47  43 E8G36     30.14R
DILLON         MOSUNNY   77  40  26 SE13      30.11S
W YELLOWSTONE  CLOUDY    64  39  39 SE3       30.31S
$$

MTZ009-010-012-014-046-048-049-054-280200-
EAST SLOPES AND CENTRAL MONTANA

CITY           SKY/WX    TMP DP  RH WIND       PRES   REMARKS
CUT BANK       CLOUDY    79  36  21 W15       29.97S HAZE
GREAT FALLS    CLOUDY    82  38  20 SW7       29.96S HAZE
MALMSTROM AFB  MOSUNNY   84  38  19 SW5       29.95F HAZE
HELENA         PTSUNNY   85  37  18 S8        30.00F
CONRAD           N/A     78  56  46 NW1       30.00S
$$

MTZ011-013-016-021-045-047-050-051-280200-
NORTH CENTRAL MONTANA

CITY           SKY/WX    TMP DP  RH WIND       PRES   REMARKS
HAVRE          MOSUNNY   83  47  28 SE5       29.87F HAZE
LEWISTOWN      CLOUDY    78  51  38 SE6       30.02F HAZE
N BAR RANCH      N/A     75  46  35 W3        30.07S
CHINOOK          N/A     84  55  37 CALM      29.87F
FORT BENTON      N/A     90  37  15 N5        29.91S
$$

MTZ017>020-022>027-061-062-280200-
NORTHEAST MONTANA

CITY           SKY/WX    TMP DP  RH WIND       PRES   REMARKS
GLASGOW        PTCLDY    85  56  37 S6        29.85F
JORDAN           N/A     85  49  28 CALM      29.90S
SIDNEY         PTCLDY    81  66  61 CALM      29.87S
WOLF POINT     PTCLDY    86  60  41 CALM      29.85F
MALTA            N/A     80  55  42 CALM      29.85S
PLENTYWOOD       N/A     84  57  39 S7        29.87F
POPLAR           N/A     88  54  31 CALM      29.86F
$$

MTZ028>42-056>058-280200-
SOUTHCENTRAL AND SOUTHEAST MONTANA

CITY           SKY/WX    TMP DP  RH WIND       PRES   REMARKS
BAKER          PTCLDY    81  60  48 NE6       29.95R
BILLINGS       CLOUDY    74  45  35 SW21G29   30.04F
LIVINGSTON     PTSUNNY   79  42  26 SW16G25   30.10R
MILES CITY     MOCLDY    88  46  23 CALM      29.91S
EKALAKA          N/A     81  51  35 CALM      29.96S
FORSYTH          N/A     88  52  29 W6        29.92S
LAUREL           N/A     73  44  35 S7        30.05S
$$

REGIONAL REPORTS...DAKOTAS

CITY           SKY/WX    TMP DP  RH WIND       PRES   REMARKS
WILLISTON      PTCLDY    81  65  58 SW3       29.87F
MINOT          CLEAR     76  66  71 CALM      29.86F
DICKINSON      CLEAR     77  59  53 SE7       29.90F
CROSBY           N/A     75  59  57 SW6       29.86S
BISMARCK       CLEAR     77  64  64 S10       29.91F
GRAND FORKS    MOCLDY    72  65  78 S3        29.89F
FARGO          MOCLDY    75  66  73 SE3       29.90F
BUFFALO SD       N/A     73  59  61 SE10      29.89R
RAPID CITY     CLEAR     72  62  71 SE5       30.00S
$$

REGIONAL REPORTS...WYOMING/IDAHO/WASHINGTON

CITY           SKY/WX    TMP DP  RH WIND       PRES   REMARKS
GILLETTE       CLEAR     72  54  53 W6        30.04S
SHERIDAN       CLOUDY    78  48  34 NW7       30.06R
BUFFALO WY     MOCLDY    77  46  33 N13G23    30.13R
CODY           CLOUDY    63  50  63 SW13G21   30.25R
YELLOWSTONE LA   N/A     51  47  86 CALM      30.40F
IDAHO FALLS    CLOUDY    78  47  33 E10       30.13F
SALMON         MOSUNNY   82  50  32 N5        29.98S
BOISE          SUNNY     91  36  14 N9        30.02F
SPOKANE        PTSUNNY   85  38  18 SW13      29.99F
$$

REGIONAL REPORTS...ALBERTA

CITY           SKY/WX    TMP DP  RH WIND       PRES   REMARKS
EDMONTON       SUNNY     77  50  38 S6        29.78F
CALGARY        PTSUNNY   72  50  46 S7        29.88F SMOKE
MEDICINE HAT   PTSUNNY   82  52  34 SE3       29.83F SMOKE
WATERTON GATE    N/A     77  37  24 SW16G35     N/A
CARDSTON         N/A     79  37  22 W10         N/A
MILK RIVER       N/A     81  41  24 W10         N/A
ONEFOUR          N/A     84  32  15 NW13        N/A
$$

REGIONAL REPORTS...SASKATCHEWAN

CITY           SKY/WX    TMP DP  RH WIND       PRES   REMARKS
SWIFT CURRENT  CLEAR     77  52  41 W8        29.84F
REGINA         CLOUDY    77  64  65 S7        29.78F
SASKATOON      CLOUDY    72  59  64 S2        29.83F
CYPRESS HILLS    N/A     73  41  31 W5          N/A
VAL MARIE        N/A     75  55  50 SW7         N/A
ROCKGLEN         N/A     75  52  43 S9          N/A
ASSINIBOIA       N/A     77  52  41 W3          N/A
$$


USA.gov is the U.S. government's official web portal to all federal, state and local government web resources and services.